#timestamp,LO_Frequency,Hit,StdDev 
1677675615.6,286046996.9,N
1677675635.4,286046994.2,N
1677675655.3,286046992.1,N
1677675675.1,286046993.1,N
1677675695.8,286046990.8,N
1677675715.7,286046992.4,N
1677675735.5,286046995.0,N
1677675755.4,286046999.0,N
1677675775.2,286047001.8,N
1677675795.0,286047006.2,N
1677675795.9,286047006.2,N
1677675815.8,286047007.2,N
1677675835.6,286047007.3,N
1677675855.4,286047004.9,N
1677675875.3,286047004.8,N
1677675895.1,286047007.1,N
1677675915.9,286047012.2,N
1677675935.7,286047013.3,N
1677675985.5,286047010.1,E
1677675995.5,286047005.6,N
1677676015.3,286046999.9,P
1677676035.1,286047001.2,N
1677676055.9,286047006.0,N
1677676075.7,286047002.3,N
1677676095.6,286047000.4,N
1677676115.4,286047000.8,N
1677676135.2,286046998.4,N
1677676155.1,286047000.1,N
1677676156.0,286047000.1,N
1677676175.8,286047001.0,N
1677676195.6,286047002.8,N
1677676215.5,286047002.0,N
1677676235.3,286047005.0,N
1677676255.2,286047006.2,N
1677676275.9,286047005.1,N
1677676295.7,286047005.9,N
1677676315.6,286047004.4,N
1677676335.4,286047003.3,N
1677676355.2,286047004.1,N
1677676375.1,286047003.8,N
1677676376.0,286047003.8,N
1677676395.8,286047005.6,N
1677676415.7,286047004.5,N
1677676435.5,286047004.1,N
1677676455.3,286047001.6,N
1677676475.2,286047001.3,N
1677676495.9,286047003.7,N
1677676515.7,286047001.5,N
1677676535.6,286047005.7,N
1677676555.4,286047003.3,N
1677676575.2,286047001.3,N
1677676595.1,286047005.8,N
1677676596.0,286047005.8,N
1677676615.8,286047001.7,N
1677676635.7,286047005.7,N
1677676655.5,286047005.2,N
1677676675.3,286047005.9,N
1677676695.2,286047005.4,N
1677676715.0,286047005.2,N
1677676715.9,286047005.2,Y
1677676735.8,286047000.9,P
1677676755.6,286047000.0,N
1677676775.4,286046999.3,N
1677676795.3,286046999.1,N
1677676815.1,286046998.4,N
1677676835.8,286047000.7,N
1677676855.7,286046998.4,N
1677676875.5,286046998.2,N
1677676895.4,286046999.8,N
1677676915.2,286047001.4,N
1677676935.0,286047002.4,N
1677676935.9,286047002.4,N
1677676955.8,286046996.6,N
1677676975.6,286047001.7,N
1677676995.4,286047001.0,N
1677677015.3,286046998.8,N
1677677035.1,286047000.5,N
1677677055.8,286046998.1,N
1677677075.7,286046998.1,N
1677677095.5,286046996.7,N
1677677115.4,286046999.4,N
1677677135.2,286047001.1,N
1677677155.0,286047000.8,N
1677677155.9,286047000.8,N
1677677175.8,286047002.4,N
1677677195.6,286047002.8,N
1677677215.4,286047001.3,N
1677677235.3,286047001.9,N
1677677255.1,286047000.3,N
1677677275.9,286047002.8,N
1677677295.7,286046999.2,N
1677677315.5,286046998.5,N
1677677335.4,286047000.1,N
1677677355.2,286047002.8,N
1677677375.0,286047003.3,N
1677677375.9,286047003.3,N
1677677395.8,286047004.1,N
1677677415.6,286047001.4,N
1677677435.5,286047002.3,N
1677677455.3,286047002.2,N
1677677475.1,286047003.5,N
1677677495.9,286047005.9,N
1677677515.7,286047005.7,N
1677677535.5,286047003.4,N
1677677555.4,286047001.3,N
1677677575.2,286047005.4,N
1677677595.1,286047005.4,N
1677677596.0,286047005.4,N
1677677615.8,286047005.7,N
1677677635.6,286047001.5,N
1677677655.5,286047002.0,N
1677677675.3,286047002.5,N
1677677695.1,286047004.1,N
1677677715.9,286047001.4,N
1677677735.7,286047001.8,N
1677677755.6,286047002.6,N
1677677775.4,286047001.6,N
1677677795.2,286047002.8,N
1677677815.1,286047001.7,N
1677677816.0,286047001.7,N
1677677835.8,286047001.8,N
1677677855.6,286047003.9,N
1677677875.5,286047003.3,N
1677677895.3,286047005.6,Y
1677677915.2,286047000.9,P
1677677935.9,286046999.3,N
1677677955.7,286046996.4,N
1677677975.6,286046993.6,N
1677677995.4,286046997.8,N
1677678015.2,286046998.3,N
1677678035.1,286046998.3,N
1677678036.0,286046998.3,N
1677678055.8,286046996.9,N
1677678075.7,286046995.8,N
1677678095.5,286046992.4,Y
1677678115.3,286046994.5,P
1677678135.2,286046994.6,P
1677678155.0,286046996.2,N
1677678155.9,286046996.2,N
1677678175.8,286046997.3,N
1677678195.6,286046995.7,Y
1677678215.4,286046999.8,P
1677678235.3,286047001.6,N
1677678255.1,286047002.3,N
1677678275.9,286047001.6,N
1677678295.7,286046999.7,N
1677678315.5,286046998.2,N
1677678335.4,286047000.4,N
1677678355.2,286047001.1,N
1677678375.0,286046999.7,N
1677678375.9,286046999.7,N
1677678395.8,286047002.4,N
1677678415.6,286047001.8,N
1677678435.5,286047002.2,N
1677678455.3,286047002.5,N
1677678475.1,286047004.1,N
1677678495.9,286047002.2,N
1677678515.7,286046999.9,N
1677678535.5,286046999.7,N
1677678555.4,286047001.8,N
1677678575.2,286046999.7,N
1677678595.1,286047001.1,N
1677678596.0,286047001.1,N
1677678615.8,286046998.5,N
1677678635.6,286046998.9,N
1677678655.5,286047000.2,N
1677678675.3,286047000.0,N
1677678695.1,286047000.1,N
1677678715.9,286047001.1,N
1677678735.7,286046998.2,N
1677678755.6,286046999.8,N
1677678775.4,286047001.5,N
1677678795.2,286047003.5,N
1677678815.1,286047002.8,N
1677678816.0,286047002.8,N
1677678835.8,286047000.4,N
1677678855.6,286047002.8,N
1677678875.5,286047002.5,N
1677678895.3,286047000.1,N
1677678915.2,286047001.9,N
1677678935.9,286047001.8,N
1677678955.7,286047000.0,N
1677678975.6,286046998.2,N
1677678995.4,286046999.3,N
1677679015.2,286046998.4,N
1677679035.1,286046999.2,N
1677679036.0,286046999.2,N
1677679055.8,286046998.6,N
1677679075.7,286047000.8,N
1677679095.5,286047002.8,N
1677679115.3,286047002.8,N
1677679135.2,286047003.4,N
1677679155.0,286047003.4,N
1677679155.9,286047003.4,N
1677679175.7,286047001.6,N
1677679195.6,286047003.5,N
